Talkeetna, AK

10:55 AM AKDT on April 29, 2017 (GMT -0800)
Talkeetna

Weather History for PATK - November, 2011

Change the Weather History Date:

Tuesday, November 8, 2011

  Actual Average Record
Temperature  
Mean Temperature 9 °F -  
Max Temperature 18 °F 27 °F 48 °F (2002)
Min Temperature 0 °F 12 °F -19 °F (1956)
Degree Days  
Heating Degree Days 56    
Moisture  
Dew Point 2 °F    
Average Humidity 76    
Maximum Humidity 88    
Minimum Humidity 54    
Precipitation  
Precipitation 0.00 in - - ()
Sea Level Pressure  
Sea Level Pressure 30.09 in    
Wind  
Wind Speed 2 mph (NE)    
Max Wind Speed 8 mph    
Max Gust Speed -    
Visibility 10 miles    
Events      
Averages and records for this station are not official NWS values.
T = Trace of Precipitation, MM = Missing Value Source: NWS Daily Summary

Daily Weather History Graph

Daily Weather History Graph

Search for Another Location

Airport or City:

Trip Planner

Search our weather history database for the weather conditions in past years. The results will help you decide how hot, cold, wet, or windy it might be!

Date:

Astronomy

Nov. 08, 2011 Rise Set
Actual Time 8:53 AM AKST 4:33 PM AKST
Civil Twilight 8:02 AM AKST 5:25 PM AKST
Nautical Twilight 7:07 AM AKST 6:19 PM AKST
Astronomical Twilight 6:15 AM AKST 7:11 PM AKST
Moon 3:30 PM AKST (11/8) 6:44 AM AKST (11/8)
Length of Visible Light 9h 23m
Length of Day
7h 39m
Waxing Gibbous, 96% of the Moon is Illuminated
Nov 8
Waxing Gibbous
Nov 10
Full
Nov 18
Last Quarter
Nov 24
New
Dec 2
First Quarter

Hourly Weather History & Observations

Time (AKST) Temp. Windchill Dew Point Humidity Pressure Visibility Wind Dir Wind Speed Gust Speed Precip Events Conditions
12:53 AM 12.9 °F - 8.1 °F 81% 29.86 in 10.0 mi Calm Calm - N/A   Overcast
1:53 AM 15.1 °F - 7.0 °F 70% 29.89 in 10.0 mi Calm Calm - N/A   Overcast
3:53 AM 14.0 °F 5.1 °F 6.1 °F 71% 29.96 in 10.0 mi NNW 5.8 mph - N/A   Mostly Cloudy
4:53 AM 14.0 °F - 5.0 °F 67% 29.99 in 10.0 mi Calm Calm - N/A   Overcast
5:53 AM 10.9 °F - 3.9 °F 73% 30.03 in 10.0 mi Calm Calm - N/A   Overcast
6:53 AM 5.0 °F - 1.9 °F 87% 30.07 in 10.0 mi Calm Calm - N/A   Clear
7:53 AM 1.9 °F - -2.0 °F 83% 30.10 in 10.0 mi Calm Calm - N/A   Clear
8:53 AM 1.9 °F - -0.9 °F 88% 30.13 in 10.0 mi Calm Calm - N/A   Clear
9:53 AM -0.9 °F -8.9 °F -4.0 °F 87% 30.16 in 10.0 mi NE 3.5 mph - N/A   Clear
10:53 AM 3.9 °F -3.4 °F -0.0 °F 84% 30.18 in 10.0 mi East 3.5 mph - N/A   Clear
11:53 AM 10.0 °F 1.8 °F 3.9 °F 76% 30.19 in 10.0 mi ENE 4.6 mph - N/A   Clear
12:53 PM 17.1 °F 11.7 °F 6.1 °F 62% 30.20 in 10.0 mi Variable 3.5 mph - N/A   Clear
1:53 PM 18.0 °F 7.7 °F 3.9 °F 54% 30.18 in 10.0 mi NNE 8.1 mph - N/A   Clear
2:53 PM 17.1 °F 8.7 °F 5.0 °F 59% 30.17 in 10.0 mi ENE 5.8 mph - N/A   Clear
3:53 PM 16.0 °F 8.8 °F 3.9 °F 59% 30.16 in 10.0 mi NNE 4.6 mph - N/A   Clear
4:53 PM 15.1 °F 9.4 °F 3.0 °F 59% 30.15 in 10.0 mi Variable 3.5 mph - N/A   Clear
6:53 PM 6.1 °F -2.8 °F 1.0 °F 80% 30.12 in 10.0 mi NNE 4.6 mph - N/A   Clear
7:53 PM 1.9 °F -5.6 °F -0.9 °F 88% 30.10 in 8.0 mi NE 3.5 mph - N/A   Clear
8:53 PM -0.0 °F -9.9 °F -2.9 °F 88% 30.09 in 10.0 mi NNE 4.6 mph - N/A   Clear
9:53 PM 1.0 °F - -2.0 °F 87% 30.09 in 10.0 mi Calm Calm - N/A   Clear
10:53 PM -0.0 °F - -4.0 °F 83% 30.10 in 10.0 mi Calm Calm - N/A   Clear
11:53 PM 1.0 °F - -2.9 °F 83% 30.08 in 10.0 mi Calm Calm - N/A   Clear